Regional Weather Roundup
Issued by NWS Cleveland, OH

Home | Current Version | Previous Version | Text Only | Print | Product List | Glossary Off
Versions: 1 2 3 4 5 6 7 8 9 10 11 12 13 14 15 16 17 18 19 20 21 22 23 24 25 26 27 28 29 30 31 32 33 34 35 36 37 38 39 40 41 42 43 44 45 46 47 48 49 50

000
ASUS41 KCLE 271000
RWRCLE
OHIO REGIONAL WEATHER ROUNDUP
NATIONAL WEATHER SERVICE WILMINGTON, OH
500 AM EST TUE JAN 27 2015

NOTE: "FAIR" INDICATES FEW OR NO CLOUDS BELOW 12,000 FEET WITH NO
SIGNIFICANT WEATHER AND/OR OBSTRUCTIONS TO VISIBILITY.

OHZ001>008-015>018-024>027-034-035-043-044-271100-
   NORTHWEST OHIO

CITY           SKY/WX    TMP DP  RH WIND       PRES   REMARKS
DEFIANCE       CLOUDY    15  10  80 N3        29.99R
FINDLAY        MOCLDY     4   0  83 CALM      29.96R
TOLEDO EXPRESS CLOUDY    13   9  84 N5        29.98R WCI   5
TOLEDO EXEC    CLEAR     13   7  77 N6        29.99R WCI   4
LIMA           PTCLDY     8   3  80 CALM      29.95R HAZE
$$

OHZ009>014-019>023-028>033-038-089-271100-
   NORTHEAST OHIO

CITY           SKY/WX    TMP DP  RH WIND       PRES   REMARKS
CLE-HOPKINS    LGT SNOW  19  15  84 N9        29.96S WCI   8
CLE-LAKEFRONT  CLOUDY    20  14  77 N10       29.95R WCI   9
CUY CO. ARPT   NOT AVBL
LORAIN-ELYRIA  LGT SNOW  18  15  88 N10       29.94S FOG     WCI   6
ASHTABULA      FLURRIES  17  13  84 N6        29.91S WCI   9
AKRON-CANTON   LGT SNOW  19  13  77 N7        29.88R WCI  10
WOOSTER        LGT SNOW  15  12  88 NW7       29.90S FOG     WCI   5
MANSFIELD      CLOUDY    11   9  92 NW5       29.90S WCI   3
YOUNGSTOWN     LGT SNOW  18  14  84 NW12      29.87R FOG     WCI   5
$$

OHZ042-051>053-060>062-070>072-077>081-271100-
  SOUTHWEST OHIO

CITY           SKY/WX    TMP DP  RH WIND       PRES   REMARKS
CINC-COVINGTON LGT SNOW  22  16  78 NE6       29.92R WCI  14
CINC-LUNKEN    CLOUDY    20  15  81 NE5       29.97R WCI  13
HAMILTON       CLOUDY    19  13  77 NE3       29.96R
DAYTON         NOT AVBL
WRIGHT-PAT AFB NOT AVBL
DAYTON GENERAL MOCLDY    16  12  84 NE3       29.92R
WILMINGTON     MOCLDY    14   9  80 NE6       29.91S WCI   5
$$

OHZ036-037-039>041-045>050-054>059-063>069-073>076-082>088-271100-
  CENTRAL AND SOUTHEAST OHIO

CITY           SKY/WX    TMP DP  RH WIND       PRES   REMARKS
COLUMBUS       PTCLDY     7   4  87 N5        29.94R WCI  -2
OSU AIRPORT    PTCLDY     6   2  83 CALM      29.94R FOG
BOLTON FIELD   NOT AVBL
RICKENBACK AFB NOT AVBL
NEWARK         PTCLDY     8   5  87 CALM      29.92R FOG
MARION         CLOUDY    -4  -8  83 CALM      29.94S FOG
LANCASTER      CLEAR      3  -2  79 CALM      29.93S HAZE
ZANESVILLE     CLOUDY    17  12  80 NW7       29.91R HAZE    WCI   8
NEW PHILLY     LGT SNOW  19  13  77 NW7       29.91S WCI  10
$$



USA.gov is the U.S. government's official web portal to all federal, state and local government web resources and services.